NOAA 16 DEB, 41131

Orbit data source: Space-Track

NOAA 16 DEB, 41131 is space debris in SSO originally from a launch on Thu, 21 Sep 2000 UTC launched from the Air Force Western Test Range (AFWTR). Debris objects in space refer to the collection of defunct objects orbiting the Earth. Examples of debris include non-operational satellites, rocket bodies, and fragments generated from explosions, collisions, or faulty payload assembly.

Loading next visibility...
Identifier
41131, 2000-055BN
Orbit
SSO
Country
Flag of USUS
Related business
Manufacturer
Unknown
Mission
Spacecraft
Bus & Motor
Unknown
Mass
Unknown
Launch date (UTC)
2000-09-21 (26 years ago)
Launch vehicle
Unknown
Launch site
Air Force Western Test Range (AFWTR)
Object type
Payload
Rocket body
Debris
Shape & HBR
Unknown shape, 0.1 m
Radar Cross Section
Small (<0.1 m²)

Expand to show TLE details & history
Last TLE update: 6 days ago

TLE from 6 days ago
0 NOAA 16 DEB
1 41131U 00055BN  26121.22128358  .00002759  00000-0  15840-2 0  9996
2 41131  98.7829 124.0480 0055436 147.2583 213.2043 14.09352611531519
Epoch: 2026-05-01T05:18Z
TLE epoch observation values (Epoch: 2026-05-01T05:18:38.901Z)
Latitude
-0°
Longitude
-174.77074°
Altitude
898.14 km
Speed
7.386 km/s
True Right ascension
08h 16m 11s
True Declination
0° 00' 00"
Sunlit
Object was in daylight at epoch
Visualization orbit readout
Latitude
Unknown
Longitude
Unknown
Altitude
Unknown
Speed
Unknown
Apparent Right ascension
Unknown
Apparent Declination
Unknown
Sunlit
N/A
Visualization observer readout
Local Sidereal Time
00:29:17
Azimuth
Unknown
Elevation
Unknown
Doppler factor
Unknown
Orbital elements
Apogee altitude
898.883 km
Perigee altitude
818.646 km
Semi-major axis
7,236.901 km
Eccentricity
0.00554
Inclination
98.7829°
RAAN
124.048°
Arg. of periapsis
147.2583°
True anomaly
212.85843°
Mean anomaly
213.2043°
Eccentric anomaly
213.03116°
Mean motion
3.52545 °/min
Orbital period
102.11 mins
BSTAR
0.001584
Loading maneuver chart data...
Computing Atmospheric mass density...

Documentation

Showing up to 5 results
|